Location: Cella
(44.7333°N, 10.5667°E)
Time: 18:50:56
(UTC+00:00)

COSMOS 1867 COOLANT - Pass Details

Date: 24 September 2021
Orbit: 770 x 802 km, 65.0° (Epoch: 22 October)

Event Time Altitude Azimuth Distance (km) Brightness Sun altitude
Rises 18:24:36 0° 329° (NNW) 3,320 ? -13.8°
Reaches altitude 10° 18:28:24 10° 355° (N) 2,388 ? -14.4°
Maximum altitude 18:31:08 14° 25° (NNE) 2,134 ? -14.9°
Drops below altitude 10° 18:33:51 10° 55° (NE) 2,382 ? -15.4°
Enters shadow 18:33:55 10° 55° (NE) 2,394 ? -15.4°
